Location: Riverside Cemetery
(38.3047°N, 99.7773°W)
Time: 15:56:04
(UTC+00:00)

CENTAUR R/B - Pass Details

Date: 19 September 2020
Orbit: 755 x 1433 km, 63.4° (Epoch: 02 October)

Event Time Altitude Azimuth Distance (km) Brightness Sun altitude
Rises 04:25:16 0° 322° (NW) 4,268 6.7 -40.7°
Reaches altitude 10° 04:28:04 10° 318° (NW) 3,368 6.0 -41.1°
Enters shadow 04:34:28 47° 279° (W) 1,786 3.9 -41.9°
